Lid_Strength_Index
5 5 4 4 4 4 4 4 4 4 4 5 5 4 4 4 4 6 10 10 11 14 12 9 8 10 11 11 13 11 11 10 10 13 13 13 13 12 13 12 13 14 15 15 14 17 18 8 8 11 10 9 8 9
5 5 5 4 4 4 4 5 5 4 4 4 3 3 3 3 3 5 10 9 7 11 12 9 8 8 8 8 10 11 11 11 10 11 11 11 13 12 13 16 10 14 12 13 12 13 9 7 9 8 8 8 8 9
5 4 4 4 4 4 4 4 4 4 3 3 3 3 3 3 3 6 9 10 10 11 12 12 11 9 7 7 6 11 11 9 6 5 8 10 13 10 14 13 12 10 8 11 11 9 9 7 7 6 7 7 7 8
5 5 4 4 4 3 3 3 3 3 3 3 3 3 3 4 4 4 7 9 10 11 13 12 8 9 6 7 7 7 7 8 8 7 8 10 12 9 12 12 11 9 8 10 10 8 7 7 6 6 7 7 7 6
5 5 4 3 3 2 1 1 1 2 2 3 3 3 3 3 3 6 8 9 8 11 13 13 10 9 8 8 8 7 8 9 10 9 9 10 8 9 9 9 12 8 10 11 12 8 8 7 6 6 8 7 6 6
4 4 4 3 3 2 2 2 2 2 2 2 2 2 2 3 4 8 12 6 6 7 10 15 11 10 10 9 9 9 8 10 10 10 11 9 6 8 12 12 8 8 8 7 7 6 6 6 5 6 7 6 6 5
3 3 3 3 3 2 2 1 1 1 2 2 2 2 2 2 4 9 11 5 3 5 9 13 14 10 8 9 10 10 9 9 9 10 11 10 9 7 10 13 8 7 7 7 6 6 7 7 7 7 6 6 6 6
3 2 2 2 2 2 2 1 1 1 1 1 1 1 1 1 4 8 7 4 4 8 8 13 13 12 7 8 10 9 10 9 9 10 10 10 10 11 13 9 8 6 6 7 6 6 6 7 7 6 6 6 7 6
2 2 1 1 1 1 1 1 0 0 1 1 1 2 4 6 8 8 1 1 4 7 10 10 12 13 8 8 8 8 8 10 7 10 10 9 11 14 11 9 7 7 8 8 8 8 7 7 6 5 6 6 7 6
1 1 1 1 1 1 1 1 0 0 1 1 5 7 8 5 1 2 3 6 6 6 6 9 9 10 9 7 8 9 8 10 12 10 9 11 10 9 9 8 7 6 6 7 8 9 7 7 6 6 6 6 5 5
1 1 0 0 0 0 1 1 0 0 1 5 6 7 4 1 4 6 8 9 9 10 7 7 9 11 8 10 9 7 10 9 13 11 11 13 14 9 7 7 6 6 6 6 6 6 5 5 6 6 6 6 5 5
1 0 0 0 0 0 0 0 -0 3 4 4 5 4 4 5 7 10 11 9 11 11 10 11 8 9 9 8 9 8 11 10 14 10 12 14 11 8 6 6 6 6 6 6 5 6 5 5 5 6 6 6 6 5
0 -0 -0 -0 -1 -0 -0 0 -0 0 2 3 5 7 7 9 12 13 13 12 12 9 8 7 8 7 10 7 9 9 12 12 9 12 13 12 8 7 7 6 7 6 6 6 6 5 5 5 5 6 6 6 6 6
-1 -1 -1 -1 -1 -1 -0 -0 -1 1 4 7 8 14 10 11 10 11 11 11 8 6 7 7 8 8 9 9 9 12 10 10 13 15 14 10 9 7 7 6 6 6 5 6 6 5 5 6 6 6 6 6 6 6
-1 -1 -1 -1 -1 -1 -0 -1 -0 3 6 8 8 13 10 9 9 8 8 7 6 6 6 8 7 7 9 10 9 11 12 14 13 13 11 9 8 7 6 6 6 6 6 6 5 5 6 6 6 7 7 7 6 7
-1 -1 0 -1 -1 -1 -1 -1 1 3 5 7 7 9 10 8 9 8 7 8 5 5 5 7 9 10 11 10 11 12 13 14 12 9 7 7 8 7 7 6 6 5 5 5 5 5 5 5 6 7 7 6 6 6
-0 2 -0 -1 -1 -1 -1 2 4 6 7 8 9 9 9 9 9 8 7 8 6 6 9 9 11 12 9 11 12 11 12 10 8 7 6 6 6 6 6 5 5 4 5 5 6 6 6 6 6 7 7 7 6 6
3 2 -1 -1 -0 1 2 3 7 7 9 8 9 10 9 8 8 9 8 7 7 7 7 9 8 11 12 12 12 9 7 6 6 6 6 6 5 5 5 5 5 5 5 5 6 6 7 7 7 7 7 7 7 6
2 1 -1 -0 1 4 6 6 6 11 9 9 9 9 9 9 8 8 8 8 6 5 7 7 10 11 11 9 8 7 7 6 7 6 5 5 4 5 5 5 6 6 6 6 6 6 6 6 6 7 6 6 6 6
-1 -1 -0 -0 1 6 7 6 6 8 9 9 9 10 10 9 9 9 8 7 7 7 8 9 9 9 9 8 7 6 5 5 5 6 6 5 4 4 4 5 6 7 7 7 7 7 7 6 6 6 6 6 6 6
1 1 1 2 4 5 6 6 6 8 9 9 9 9 10 9 9 10 10 7 8 8 9 7 7 6 6 4 4 5 5 5 6 6 6 6 5 4 4 4 5 6 7 6 6 7 6 5 6 6 6 6 5 5
5 2 5 4 6 5 6 6 8 6 8 8 9 9 10 10 10 9 9 10 9 9 9 8 7 8 7 5 4 5 5 4 4 5 6 5 5 5 4 4 4 6 7 7 6 6 6 6 6 5 5 6 7 7
3 4 5 6 8 8 8 5 8 7 9 9 9 11 12 11 9 8 9 10 10 9 8 9 8 7 6 5 4 4 4 5 6 5 5 5 4 4 5 5 6 6 7 7 7 7 7 8 7 6 6 7 7 8
3 6 7 8 8 10 7 9 8 8 8 11 11 11 8 10 8 8 9 9 10 8 8 9 8 7 7 5 5 6 7 7 7 8 8 8 9 9 8 8 7 7 7 6 5 6 6 6 7 6 6 7 7 7
8 9 9 11 8 9 9 10 10 10 11 10 10 10 9 7 10 11 11 10 8 8 8 8 7 7 8 7 7 6 5 8 8 6 5 8 7 5 5 4 4 4 4 5 5 5 5 5 5 6 6 7 7 8
12 10 12 10 9 10 9 11 11 11 10 10 10 8 7 10 11 12 10 9 8 7 7 8 7 7 6 6 7 7 6 6 6 4 5 5 5 4 5 5 5 4 4 4 4 5 5 5 5 6 7 8 9 7
13 11 8 6 7 8 9 8 7 9 10 10 9 9 9 12 12 11 8 7 7 6 5 6 6 6 6 6 5 6 5 5 5 4 4 4 4 4 4 5 5 4 4 3 4 4 5 5 5 5 6 7 7 7
10 9 11 9 9 8 9 10 11 10 10 8 8 11 11 11 12 9 8 6 5 4 5 6 6 5 5 5 6 6 6 6 4 4 4 4 4 4 4 4 6 9 5 5 4 4 4 4 4 5 6 6 7 6
9 8 9 9 9 8 9 11 11 9 8 8 10 11 10 8 8 7 6 5 4 5 5 6 6 5 5 4 4 6 6 6 6 6 6 6 6 5 4 4 5 4 4 5 10 9 4 3 4 5 5 5 6 6
7 6 8 9 10 11 9 7 8 7 7 7 7 7 7 7 6 5 5 5 6 6 5 5 5 5 5 5 6 6 4 4 4 5 5 6 5 4 3 3 3 4 4 4 4 5 8 6 7 6 6 6 7 7
7 8 8 9 9 9 8 7 7 7 7 7 7 8 8 8 6 5 6 5 5 5 5 5 6 5 6 5 6 6 5 4 4 4 5 4 3 3 3 4 3 3 4 5 5 6 6 6 7 7 7 7 8 8
6 7 8 9 8 7 7 8 8 9 8 8 9 7 8 8 9 7 6 6 6 6 7 6 6 5 5 5 5 4 8 6 6 6 5 5 5 5 5 6 6 5 5 6 5 5 5 6 7 7 7 8 8 8
7 7 6 7 8 8 7 8 10 10 10 11 10 9 9 9 11 8 6 6 7 6 6 5 5 5 4 4 5 5 6 6 7 9 10 10 10 9 6 6 6 6 7 7 6 5 5 5 6 6 7 7 7 7